Retour au catalogue

OPS 4682 DEB

ActifPO
NORAD 18967·DEBRIS·🇺🇸 United States

Lancé Apr 3, 1965 depuis Vandenberg Space Force Base

Loading…

Prochains Passages (prochaines 24 heures)

TLE

FraisSource: Space-Track

Époque: Sep 14, 2026, 13:57 UTC

1 18967U 65027AP  26257.58179027  .00000342  00000-0  11747-2 0  9993
2 18967  90.2534  12.4031 0026537 268.5202 220.9605 12.96060293829893

Suivez OPS 4682 DEB en temps réel avec AllMySat

Download on the App Store